Flag for Morocco Weather past 2 weeks in Tangier, Morocco

Now
72 °F

Passing clouds.


Feels Like: 75 °F
Forecast: N/A
Wind: 12 mph from West

Location: Tanger Aerodrome

Current Time: Jul 28, 2014 at 10:48:04 PM

Latest Report: Jul 28, 2014 at 10:30 PM


Visibility: 5 mi

Pressure: 30.01 "Hg

Humidity: 69%

Dew point: 61 °F

Location of TangierLocation

Historic Weather in Tangier — Graph

°F

Tangier temperature yesterday

Maximum temperature yesterday: 79 °F (at 2:00 PM)
Minimum temperature yesterday: 70 °F (at 12:00 AM)
Average temperature yesterday: 73 °F

Past Weeks' High & Low Weather Summary

 TemperatureHumidityPressure
High91 °F (Jul 16, 10:30 AM)94% (Jul 14, 6:00 AM)30.12 "Hg (Jul 14, 6:00 AM)
Low61 °F (Jul 14, 5:00 AM)25% (Jul 21, 4:00 PM)29.86 "Hg (Jul 22, 4:30 PM)
Average74 °F69%29.98 "Hg
* Reported Jul 13 9:00 PM — Jul 28 9:30 PM, Tangier, Weather by CustomWeather, © 2014

Note: Actual official high and low records may vary slightly from our data, if they occured in-between our weather recording intervals... More about our weather records

Advertising

Tangier weather history for previous 24 hours

 ConditionsComfort  
Time TempWeatherWind HumidityBarometerVisibility
9:30 PM
Jul 28
72 °FPassing clouds.10 mph69%30.01 "Hg5 mi
9:00 PM72 °FPassing clouds.10 mph69%30.01 "Hg5 mi
8:30 PM72 °FPassing clouds.8 mph69%30.01 "Hg5 mi
8:00 PM72 °FPassing clouds.10 mph69%30.01 "Hg5 mi
7:30 PM72 °FPartly sunny.9 mph69%29.98 "HgN/A
7:00 PM72 °FPartly sunny.9 mph69%29.98 "HgN/A
6:30 PM73 °FPartly sunny.12 mph65%29.98 "HgN/A
6:00 PM73 °FPartly sunny.10 mph65%29.98 "HgN/A
5:30 PM73 °FPartly sunny.12 mph65%29.98 "HgN/A
5:00 PM75 °FPartly sunny.13 mph61%30.01 "HgN/A
4:30 PM75 °FPartly sunny.13 mph61%30.01 "HgN/A
4:00 PM77 °FPartly sunny.13 mph57%30.01 "HgN/A
3:30 PM77 °FScattered clouds.14 mph57%30.01 "HgN/A
3:00 PM77 °FScattered clouds.14 mph57%30.01 "HgN/A
2:30 PM77 °FScattered clouds.16 mph57%30.01 "HgN/A
2:00 PM77 °FScattered clouds.14 mph57%30.01 "HgN/A
1:30 PM79 °FScattered clouds.13 mph54%30.04 "HgN/A
1:00 PM77 °FScattered clouds.14 mph57%30.04 "HgN/A
12:30 PM77 °FScattered clouds.14 mph57%30.04 "HgN/A
12:00 PM79 °FScattered clouds.13 mph54%30.04 "HgN/A
11:30 AM77 °FScattered clouds.12 mph57%30.04 "HgN/A
11:00 AM75 °FPartly sunny.9 mph61%30.04 "HgN/A
10:30 AM75 °FPartly sunny.9 mph61%30.04 "HgN/A
10:00 AM75 °FPartly sunny.10 mph61%30.04 "HgN/A
9:30 AM73 °FPartly sunny.8 mph65%30.04 "HgN/A
9:00 AM73 °FPartly sunny.8 mph65%30.04 "HgN/A
8:30 AM73 °FPartly sunny.7 mph65%30.04 "HgN/A
8:00 AM72 °FPartly sunny.8 mph69%30.04 "HgN/A
7:30 AM72 °FPartly sunny.7 mph69%30.04 "HgN/A
7:00 AM72 °FPartly sunny.7 mph69%30.04 "HgN/A
6:30 AM72 °FPartly sunny.6 mph65%30.04 "Hg5 mi
6:00 AM72 °FPartly sunny.6 mph69%30.04 "Hg5 mi
5:30 AM70 °FPartly sunny.5 mph73%30.04 "Hg5 mi
5:00 AM70 °FPassing clouds.6 mph69%30.04 "Hg5 mi
4:30 AM70 °FPassing clouds.6 mph73%30.04 "Hg5 mi
4:00 AM70 °FPassing clouds.7 mph73%30.04 "HgN/A
3:30 AM70 °FPassing clouds.6 mph73%30.04 "HgN/A
2:30 AM70 °FPassing clouds.5 mph73%30.04 "Hg5 mi
2:00 AM70 °FPassing clouds.6 mph73%30.04 "Hg5 mi
1:30 AM70 °FPassing clouds.6 mph73%30.04 "Hg5 mi
1:00 AM70 °FPassing clouds.7 mph73%30.07 "Hg5 mi
12:30 AM72 °FPassing clouds.9 mph69%30.07 "Hg5 mi
12:00 AM72 °FPassing clouds.10 mph69%30.07 "Hg5 mi
11:30 PM
Jul 27
72 °FPassing clouds.9 mph69%30.07 "Hg5 mi
11:00 PM72 °FPassing clouds.8 mph69%30.07 "Hg5 mi
10:30 PM72 °FPassing clouds.8 mph69%30.07 "Hg5 mi
10:00 PM72 °FPassing clouds.8 mph69%30.07 "Hg5 mi
Weather by CustomWeather, © 2014

See weather overviewHow to use our weather pages